Starlink 32176

operational
NORAD ID: 60340 Int'l Des: 2024-136 Owner: SPXS Country: US Constellation: starlink
LEOCIRCULAR

About Starlink 32176

Description loading...

Live Position

Loading 3D Globe...

Upcoming Passes

Altitude History

Altitude vs Time

uPlot chart will show altitude changes over time

Two-Line Element Set

1 60340U 24136M 25306.31953647 .00000649 00000-0 34064-4 0 9993
2 60340 53.1613 307.2862 0001466 84.0684 276.0483 15.30189451 71330
Epoch: Nov 2, 2025 • Age: 22 hours

Current Status

Altitude 485.6 km
Velocity 7.62 km/s
Sub-Earth Point -31.47°S, 151.63°E
Launch Date Aug 2, 2024
Age 1.2 years
Type internet

Technical Details

Classification Payload
Mass 730.00 kg
Dry Mass 700.00 kg
Total Mass 730.00 kg
Length 0.30 m
Diameter 4.10 m
Span 29.00 m
Shape Box + pan
Manufacturer SPXS
Bus Type Starlink V2M
Phase Status In Orbit
Owner/State SPXS/US

Large Constellations

Loading constellations...